Regional Weather Roundup
Issued by NWS

Home | Current Version | Previous Version | Graphics & Text | Print | Product List | Glossary On
Versions: 1 2 3 4 5 6 7 8 9 10 11 12 13 14 15 16 17 18 19 20 21 22 23 24 25 26 27 28 29 30 31 32 33 34 35 36 37 38 39 40 41 42 43 44 45 46 47 48 49 50
000
ASUS43 KMPX 230610
RWRMN
WEATHER ROUNDUP FOR MINNESOTA
NATIONAL WEATHER SERVICE TWIN CITIES/CHANHASSEN MN
100 AM CDT SAT MAY 23 2015


NOTE: "FAIR" INDICATES FEW OR NO CLOUDS BELOW 12,000 FEET WITH NO
SIGNIFICANT WEATHER AND/OR OBSTRUCTIONS TO VISIBILITY. N/A MEANS
CURRENT SKY AND/OR WEATHER CONDITIONS ARE NOT AVAILABLE.

MNZ060>063-068>070-230700-
   Twin Cities Metro

CITY           SKY/WX    TMP DP  RH WIND       PRES   REMARKS
TWIN CITIES    PTCLDY    59  39  47 SE5       30.20S
6HR MIN TEMP:  59; 6HR MAX TEMP:  73;

ST PAUL        PTCLDY    56  44  64 E3        30.21S
CRYSTAL        PTCLDY    52  43  71 CALM      30.19S
BLAINE         PTCLDY    55  43  62 SE3       30.20S
LAKEVILLE      PTCLDY    50  43  76 S3        30.20S
EDEN PRAIRIE   PTCLDY    59  39  47 SE8       30.19S
6HR MIN TEMP:  58; 6HR MAX TEMP:  72;

SOUTH ST PAUL  PTCLDY    54  44  69 CALM      30.20S
LAKE ELMO      FAIR      50  45  81 CALM      30.22S
$$
MNZ001>005-007-008-013>017-022>024-027-028-230700-
   Northwest Minnesota

CITY           SKY/WX    TMP DP  RH WIND       PRES   REMARKS
BEMIDJI        CLEAR     49  40  70 CALM      30.17R
HALLOCK        CLEAR     55  43  62 S9        30.11R
ROSEAU         PTCLDY    61  45  55 SW8       30.11S
WARROAD        PTCLDY    61  43  51 SW7       30.11S
THIEF RVR FALL CLEAR     55  37  50 S7        30.15R
CROOKSTON      CLEAR     55  41  58 SE7       30.14S
FOSSTON        CLEAR     46  39  76 CALM      30.17R
DETROIT LAKES  CLEAR     54  41  62 CALM      30.18S
MOORHEAD       CLEAR     59  39  47 SE5       30.15S
PARK RAPIDS    CLEAR     54  40  59 CALM      30.17S
MAHNOMEN       FAIR      55  39  54 S5        30.16R
$$
MNZ006-009>011-018-025>026-230700-
   North Central Minnesota

CITY           SKY/WX    TMP DP  RH WIND       PRES   REMARKS
BAUDETTE       CLEAR     54  40  59 W3        30.11R
INTL FALLS     MOCLDY    53  42  66 SW5       30.11S
6HR MIN TEMP:  51; 6HR MAX TEMP:  73; 6HR PCP: TRACE;

WASKISH        CLEAR     57  43  58 CALM      30.14R
BIG FORK       CLEAR     45  43  93 CALM      30.16S
LONGVILLE      CLEAR     45  43  93 CALM      30.18R
GRAND RAPIDS   CLEAR     52  37  58 S6        30.18S
CRANE LAKE     PTCLDY    45  41  87 S3        30.13S
ORR            PTCLDY    55  34  44 CALM      30.12S
COOK           PTCLDY    55  36  47 SW5       30.15S
WALKER         FAIR      53  39  58 SW3       30.17S
$$
MNZ012-019>021-037-230700-
   Northeast Minnesota

CITY           SKY/WX    TMP DP  RH WIND       PRES   REMARKS
DULUTH         CLEAR     53  36  52 SW10      30.18S
6HR MIN TEMP:  52; 6HR MAX TEMP:  73;

ELY            CLEAR     52  36  54 SW3       30.14S
HIBBING        CLEAR     42  36  79 SW3       30.16S
EVELETH        CLEAR     50  39  66 W5        30.17S
DULUTH HARBOR  CLEAR     45  37  76 SW3       30.19S
TWO HARBORS    CLEAR     43  37  81 CALM      30.16S
SILVER BAY     CLEAR     39  34  81 CALM      30.15S
GRAND MARAIS     N/A     37  32  82 CALM      30.14F
G MARAIS ARPRT CLEAR     37  27  65 W3        30.15F
$$
MNZ029>031-032-039>041-046>048-054>057-064-230700-
   West Central Minnesota

CITY           SKY/WX    TMP DP  RH WIND       PRES   REMARKS
FERGUS FALLS   PTCLDY    59  37  44 SE8       30.16S
WHEATON        PTCLDY    57  45  62 SW10      30.19R
MORRIS         PTCLDY    57  45  62 SW8       30.18R
ALEXANDRIA     PTCLDY    57  38  48 SE7       30.19S
ELBOW LAKE     FAIR      56  39  53 S10       30.17R
WADENA         PTCLDY    54  39  58 CALM      30.17S
GLENWOOD       PTCLDY    54  39  58 SE7       30.19S
APPLETON       PTCLDY    55  45  67 SW6       30.19S
BENSON         CLEAR     55  43  62 W5        30.20R
ORTONVILLE     PTCLDY    55  43  62 W5        30.18S
MADISON        CLEAR     54  41  62 W3        30.20R
WILLMAR        FAIR      57  41  54 SW8       30.21R
$$
MNZ033>034-036-042>043-049>051-058-059-230700-
   Central Minnesota

CITY           SKY/WX    TMP DP  RH WIND       PRES   REMARKS
ST CLOUD       PTCLDY    47  44  90 CALM      30.19S
6HR MIN TEMP:  47; 6HR MAX TEMP:  72;

SAUK CENTRE    FAIR      51  41  68 E3        30.19S
PAYNESVILLE    PTCLDY    54  38  55 E3        30.19S
AITKIN         CLEAR     46  41  81 CALM      30.18R
PINE RIVER     CLEAR     46  43  87 CALM      30.21S
BRAINERD       CLEAR     46  41  82 CALM      30.19S
STAPLES        PTCLDY    48  41  76 CALM      30.18S
LONG PRAIRIE   FAIR      52  41  66 CALM      30.19S
LITTLE FALLS   CLEAR     50  37  62 CALM      30.18F
LITCHFIELD     PTCLDY    57  41  54 CALM      30.19S
BUFFALO        PTCLDY    53  44  70 CALM      30.20S
MAPLE LAKE     PTCLDY    51  47  87 CALM      30.20S
$$
MNZ037-044-045-052-053-230700-
   East Central Minnesota

CITY           SKY/WX    TMP DP  RH WIND       PRES   REMARKS
PRINCETON      PTCLDY    52  43  71 CALM      30.20S
MORA           CLEAR     45  41  87 CALM      30.21S
CAMBRIDGE      PTCLDY    54  43  66 CALM      30.18S
RUSH CITY      PTCLDY    50  39  67 CALM      30.20S
MOOSE LAKE     CLEAR     43  39  87 CALM      30.18S
HINCKLEY       FAIR      43  41  93 CALM      30.19S
CLOQUET        CLEAR     55  34  44 SW6       30.18S
MCGREGOR       CLEAR     50  41  71 CALM      30.19S
$$
MNZ071>073-080-081-089-090-097-098-230700-
   Southwest Minnesota

CITY           SKY/WX    TMP DP  RH WIND       PRES   REMARKS
MONTEVIDEO     CLEAR     57  43  58 CALM      30.21S
GRANITE FALLS  CLEAR     54  42  63 W3        30.22R
CANBY          PTCLDY    56  42  60 SW8       30.20S
MARSHALL       PTCLDY    55  39  54 W3        30.20S
REDWOOD FALLS  PTCLDY    59  43  55 W8        30.21R
OLIVIA         CLEAR     52  37  58 W3        30.20R
PIPESTONE      MOCLDY    55  43  62 NW2       30.20F
WINDOM         MOCLDY    55  43  62 CALM      30.22S
WORTHINGTON    MOCLDY    54  39  58 CALM      30.22R
JACKSON        CLOUDY    55  45  67 NW3       30.22S
TRACY          PTCLDY    57  44  61 W6        30.21S
SLAYTON        MOCLDY    53  43  68 CALM      30.22S
$$
MNZ065>067-074>077-082>085-091>093-230700-
   South Central Minnesota

CITY           SKY/WX    TMP DP  RH WIND       PRES   REMARKS
MANKATO        PTCLDY    59  37  44 S6        30.21R
NEW ULM        PTCLDY    57  43  58 W9        30.21R
ST JAMES       MOCLDY    57  45  62 W8        30.23S
FAIRMONT       MOCLDY    57  39  51 NW7       30.22S
GLENCOE        PTCLDY    57  41  55 E5        30.18S
FARIBAULT      MOCLDY    52  43  71 CALM      30.21S
OWATONNA       MOCLDY    57  37  47 E5        30.20F
WASECA         MOCLDY    55  41  58 E3        30.21S
ALBERT LEA     MOCLDY    61  41  48 SW6       30.21R
$$
MNZ078>079-086>088-094>096-230700-
   Southeast Minnesota

CITY           SKY/WX    TMP DP  RH WIND       PRES   REMARKS
ROCHESTER      MOCLDY    55  40  56 SE8       30.23S
6HR MIN TEMP:  55; 6HR MAX TEMP:  68;

RED WING       PTCLDY    46  43  87 CALM      30.21S
STANTON        PTCLDY    50  39  65 CALM      30.19F
DODGE CENTER   MOCLDY    57  39  51 SE6       30.21F
WINONA         MOCLDY    50  46  87 CALM      30.23S
AUSTIN         MOCLDY    55  39  54 CALM      30.20F
PRESTON        CLOUDY    58  40  51 SE5       30.22F
$$
ABBREVIATIONS USED IN REMARKS
   TC - TEMPERATURES IN CELSIUS
  WCI - WIND CHILL INDEX
   HX - HEAT INDEX
  VSB - VISIBILITY
$$


USA.gov is the U.S. government's official web portal to all federal, state and local government web resources and services.